Location: ActonStarParty
(42.4766°N, 71.4538°W)
Time: 14:22:17
(UTC-04:00)

ISS - Visible Passes

Search period start: 23 September 2017 00:00
Search period end: 03 October 2017 00:00
Orbit: 401 x 407 km, 51.6° (Epoch: 24 September)

Date Brightness Start Highest point End Pass type
(mag) Time Alt. Az. Time Alt. Az. Time Alt. Az.
23 Sep -1.4 20:03:15 10° S 20:03:33 11° S 20:03:33 11° S visible
24 Sep -1.4 20:46:08 10° SW 20:47:03 18° SW 20:47:03 18° SW visible
25 Sep -3.4 19:54:03 10° SSW 19:57:08 40° SE 19:57:36 37° ESE visible
26 Sep -2.4 19:02:23 10° S 19:04:57 22° SE 19:07:32 10° E visible
26 Sep -2.6 20:38:02 10° WSW 20:40:37 41° WNW 20:40:37 41° WNW visible
27 Sep -3.9 19:45:35 10° WSW 19:48:51 85° NNW 19:50:45 23° NE visible
27 Sep -0.3 21:23:05 10° WNW 21:23:25 12° WNW 21:23:25 12° WNW visible
28 Sep -2.1 20:30:15 10° W 20:33:09 28° NNW 20:33:23 28° NNW visible
29 Sep -2.7 19:37:32 10° W 19:40:39 41° NNW 19:43:14 14° NE visible
29 Sep -0.4 21:15:27 10° NW 21:15:54 12° NW 21:15:54 12° NW visible
30 Sep -1.6 20:22:35 10° WNW 20:25:07 20° NNW 20:25:38 19° N visible
01 Oct -1.9 19:29:43 10° WNW 19:32:30 25° NNW 19:35:19 10° NE visible
01 Oct -0.5 21:07:36 10° NW 21:07:57 11° NW 21:07:57 11° NW visible
02 Oct -1.5 20:14:52 10° NW 20:17:06 17° N 20:17:34 16° N visible
